Date String (YYYY-MM-DD hh:mm:ss) UTC,Instrument flags,Ambient pressure (hPa),Sample flow (lpm),Bypass flow (lpm),Sample temperature (°C),Ambient temperature (°C),ASC tube jacket temperature (°C),LED temperature (°C),Box temperature (°C),Sample RH (%),Span deviation,Mass concentration (μg/m³),Mass concentration (μg/m³),Mass concentration (μg/m³)
DateTimeUTC,F1_M11,P_M11,Q1_M11,Q2_M11,T1_M11,T2_M11,T3_M11,T4_M11,T5_M11,U1_M11,ZSPAN_M11,X0_M11,X2_M11,X1_M11
2021-12-20 20:00:00,,0825.4,5.01,0.00,25.8,25.0,00.0,34.7,27.6,08.3,0000.0,0000.28,0000.21,0000.16
2021-12-20 20:01:00,,0825.3,4.99,0.00,25.9,25.0,00.0,34.7,27.6,08.4,0000.0,0000.29,0000.21,0000.16
2021-12-20 20:02:00,,0825.4,4.99,0.00,25.9,25.1,00.0,34.7,27.6,08.5,0000.0,0000.35,0000.23,0000.16
2021-12-20 20:03:00,,0825.4,5.00,0.00,25.8,25.1,00.0,34.8,27.6,08.5,0000.0,0000.39,0000.25,0000.17
2021-12-20 20:04:00,,0825.4,5.01,0.00,25.9,25.1,00.0,34.8,27.6,08.4,0000.0,0000.54,0000.27,0000.17
2021-12-20 20:05:00,,0825.3,5.00,0.00,25.9,25.0,00.0,34.8,27.6,08.5,0000.0,0000.95,0000.28,0000.18
2021-12-20 20:06:00,,0825.3,5.00,0.00,25.9,25.0,00.0,34.8,27.6,08.5,0000.0,0000.93,0000.26,0000.17
2021-12-20 20:07:00,,0825.4,5.01,0.00,25.9,25.0,00.0,34.8,27.7,08.3,0000.0,0000.92,0000.27,0000.17
2021-12-20 20:08:00,,0825.3,5.00,0.00,25.9,25.1,00.0,34.8,27.7,08.2,0000.0,0000.92,0000.27,0000.17
2021-12-20 20:09:00,,0825.3,5.00,0.00,25.9,25.1,00.0,34.8,27.7,08.2,0000.0,0001.52,0000.29,0000.18
2021-12-20 20:10:00,,0825.4,5.01,0.00,25.9,25.1,00.0,34.8,27.6,08.3,0000.0,0002.16,0000.30,0000.18
2021-12-20 20:11:00,,0825.4,5.00,0.00,25.9,25.0,00.0,34.8,27.6,08.3,0000.0,0002.17,0000.30,0000.19
2021-12-20 20:12:00,,0825.4,4.99,0.00,25.9,25.0,00.0,34.8,27.6,08.2,0000.0,0002.16,0000.30,0000.19
2021-12-20 20:13:00,,0825.3,5.00,0.00,25.9,25.1,00.0,34.8,27.6,08.2,0000.0,0002.14,0000.29,0000.19
2021-12-20 20:14:00,,0825.4,5.00,0.00,25.9,25.1,00.0,34.9,27.7,08.3,0000.0,0002.46,0000.29,0000.19
2021-12-20 20:15:00,,0825.4,5.00,0.00,26.0,25.1,00.0,34.9,27.7,08.3,0000.0,0002.61,0000.28,0000.19
2021-12-20 20:16:00,,0825.4,5.01,0.00,26.0,25.1,00.0,34.9,27.7,08.3,0000.0,0002.27,0000.29,0000.19
2021-12-20 20:17:00,,0825.4,4.99,0.00,26.0,25.1,00.0,34.9,27.7,08.3,0000.0,0002.30,0000.31,0000.19
2021-12-20 20:18:00,,0825.4,5.00,0.00,26.0,25.1,00.0,34.9,27.7,08.2,0000.0,0002.29,0000.30,0000.19
2021-12-20 20:19:00,,0825.4,5.01,0.00,26.0,25.1,00.0,34.9,27.7,08.2,0000.0,0002.34,0000.31,0000.19
2021-12-20 20:20:00,,0825.4,5.00,0.00,26.0,25.1,00.0,34.9,27.7,08.3,0000.0,0001.85,0000.30,0000.19
2021-12-20 20:21:00,,0825.4,5.01,0.00,26.0,25.1,00.0,34.9,27.8,08.3,0000.0,0001.14,0000.31,0000.19
2021-12-20 20:22:00,,0825.3,4.98,0.00,26.0,25.1,00.0,34.9,27.7,08.3,0000.0,0001.16,0000.31,0000.19
2021-12-20 20:23:00,,0825.4,4.99,0.00,26.0,25.1,00.0,35.0,27.8,08.2,0000.0,0001.15,0000.31,0000.19
2021-12-20 20:24:00,,0825.3,5.01,0.00,26.1,25.2,00.0,35.0,27.8,08.2,0000.0,0001.13,0000.31,0000.19
2021-12-20 20:25:00,,0825.4,4.99,0.00,26.1,25.2,00.0,35.0,27.8,08.2,0000.0,0000.83,0000.28,0000.19
2021-12-20 20:26:00,,0825.4,5.01,0.00,26.1,25.2,00.0,35.0,27.8,08.2,0000.0,0000.45,0000.26,0000.18
2021-12-20 20:27:00,,0825.4,5.02,0.00,26.1,25.2,00.0,35.0,27.8,08.2,0000.0,0000.42,0000.25,0000.18
2021-12-20 20:28:00,,0825.4,4.99,0.00,26.1,25.2,00.0,35.0,27.8,08.2,0000.0,0000.37,0000.24,0000.18
2021-12-20 20:29:00,,0825.4,5.01,0.00,26.1,25.2,00.0,35.0,27.8,08.2,0000.0,0000.36,0000.24,0000.18
2021-12-20 20:30:00,,0825.4,4.99,0.00,26.1,25.2,00.0,35.0,27.8,08.2,0000.0,0000.36,0000.23,0000.18
2021-12-20 20:31:00,,0825.4,5.01,0.00,26.1,25.2,00.0,35.0,27.8,08.1,0000.0,0000.40,0000.25,0000.18
2021-12-20 20:32:00,,0825.4,5.00,0.00,26.1,25.1,00.0,35.0,27.8,08.1,0000.0,0000.37,0000.23,0000.18
2021-12-20 20:33:00,,0825.4,4.99,0.00,26.1,25.2,00.0,35.0,27.9,08.0,0000.0,0001.66,0000.23,0000.18
2021-12-20 20:34:00,,0825.3,5.00,0.00,26.1,25.2,00.0,35.0,27.9,08.0,0000.0,0001.74,0000.25,0000.19
2021-12-20 20:35:00,,0825.4,5.00,0.00,26.2,25.2,00.0,35.1,27.9,07.9,0000.0,0001.77,0000.26,0000.19
2021-12-20 20:36:00,,0825.4,4.99,0.00,26.2,25.2,00.0,35.1,27.9,08.0,0000.0,0001.85,0000.30,0000.19
2021-12-20 20:37:00,,0825.3,4.99,0.00,26.2,25.3,00.0,35.1,27.9,08.0,0000.0,0001.88,0000.31,0000.20
2021-12-20 20:38:00,,0825.4,5.00,0.00,26.2,25.3,00.0,35.1,27.9,08.0,0000.0,0001.86,0000.30,0000.20
2021-12-20 20:39:00,,0825.3,5.00,0.00,26.2,25.3,00.0,35.1,27.9,07.9,0000.0,0001.86,0000.30,0000.20
2021-12-20 20:40:00,,0825.3,4.99,0.00,26.2,25.3,00.0,35.1,28.0,07.9,0000.0,0001.85,0000.30,0000.20
2021-12-20 20:41:00,,0825.4,5.00,0.00,26.2,25.4,00.0,35.1,27.9,07.9,0000.0,0001.83,0000.30,0000.20
2021-12-20 20:42:00,,0825.3,5.00,0.00,26.2,25.4,00.0,35.1,27.9,07.9,0000.0,0001.78,0000.28,0000.20
2021-12-20 20:43:00,,0825.3,5.00,0.00,26.2,25.3,00.0,35.1,27.9,07.9,0000.0,0001.99,0000.31,0000.20
2021-12-20 20:44:00,,0825.4,5.01,0.00,26.2,25.4,00.0,35.1,27.9,07.8,0000.0,0002.60,0000.41,0000.20
2021-12-20 20:45:00,,0825.4,5.01,0.00,26.2,25.4,00.0,35.2,27.9,07.8,0000.0,0002.72,0000.44,0000.20
2021-12-20 20:46:00,,0825.4,4.99,0.00,26.2,25.4,00.0,35.2,28.0,07.8,0000.0,0002.98,0000.47,0000.21
2021-12-20 20:47:00,,0825.5,5.00,0.00,26.2,25.4,00.0,35.2,28.0,07.8,0000.0,0002.91,0000.45,0000.20
2021-12-20 20:48:00,,0825.5,5.00,0.00,26.2,25.5,00.0,35.2,28.0,07.8,0000.0,0002.88,0000.44,0000.21
2021-12-20 20:49:00,,0825.4,5.00,0.00,26.2,25.4,00.0,35.2,28.0,07.8,0000.0,0002.92,0000.45,0000.21
2021-12-20 20:50:00,,0825.5,4.99,0.00,26.2,25.4,00.0,35.2,28.0,07.8,0000.0,0003.01,0000.46,0000.21
2021-12-20 20:51:00,,0825.4,5.01,0.00,26.3,25.4,00.0,35.2,28.0,07.8,0000.0,0003.00,0000.46,0000.21
2021-12-20 20:52:00,,0825.5,5.01,0.00,26.3,25.4,00.0,35.2,28.0,07.8,0000.0,0003.02,0000.46,0000.21
2021-12-20 20:53:00,,0825.5,5.00,0.00,26.3,25.4,00.0,35.2,28.0,07.7,0000.0,0003.03,0000.46,0000.22
2021-12-20 20:54:00,,0825.5,5.00,0.00,26.3,25.5,00.0,35.2,28.1,07.7,0000.0,0002.91,0000.45,0000.22
2021-12-20 20:55:00,,0825.5,5.00,0.00,26.3,25.5,00.0,35.2,28.1,07.7,0000.0,0002.18,0000.36,0000.22
2021-12-20 20:56:00,,0825.4,4.99,0.00,26.3,25.5,00.0,35.2,28.1,07.7,0000.0,0002.04,0000.32,0000.22
2021-12-20 20:57:00,,0825.4,5.00,0.00,26.3,25.5,00.0,35.3,28.1,07.6,0000.0,0002.94,0000.32,0000.22
2021-12-20 20:58:00,,0825.4,5.01,0.00,26.3,25.6,00.0,35.3,28.1,07.6,0000.0,0003.33,0000.36,0000.23
2021-12-20 20:59:00,,0825.4,4.98,0.00,26.3,25.6,00.0,35.3,28.1,07.6,0000.0,0003.37,0000.37,0000.23
